EW4214 Weather Reports


Display with metric or nautical units.
time (UTC)temp
F
wind
direction
speed
MPH
gust
MPH
rain 1hr
in
rain 24hr
in
rain mn
in
humidity
%
barometer
mb
20260903104222 90 257 0.0 5.0 0.00 0.00 0.00 60 1003.8
20260903103218 91 261 2.0 6.0 0.00 0.00 0.00 60 1003.7
20260903102717 91 268 3.0 6.0 0.00 0.00 0.00 59 1003.5
20260903101211 91 304 0.0 6.0 0.00 0.00 0.00 59 1003.5
20260903100206 91 271 4.0 6.0 0.00 0.00 0.00 59 1003.6
20260903095204 91 321 2.0 5.0 0.00 0.00 0.00 60 1003.6
20260903094205 91 331 0.0 4.0 0.00 0.00 0.00 60 1003.6
20260903093206 90 287 2.0 5.0 0.00 0.00 0.00 60 1003.7
20260903092204 90 261 2.0 7.0 0.00 0.00 0.00 60 1003.7
20260903091205 90 297 0.0 8.0 0.00 0.00 0.00 60 1003.6
20260903090203 90 251 3.0 4.0 0.00 0.00 0.00 60 1003.7
20260903085203 90 302 2.0 5.0 0.00 0.00 0.00 60 1003.9
20260903084204 90 256 3.0 6.0 0.00 0.00 0.00 61 1004.0
20260903083207 90 327 2.0 8.0 0.00 0.00 0.00 60 1004.1
20260903082644 90 233 3.0 6.0 0.00 0.00 0.00 61 1004.3
20260903081203 90 290 2.0 7.0 0.00 0.00 0.00 61 1004.5
20260903080202 90 262 1.0 9.0 0.00 0.00 0.00 61 1004.7
20260903075650 90 263 2.0 5.0 0.00 0.00 0.00 61 1004.8
20260903074202 90 271 3.0 5.0 0.00 0.00 0.00 61 1004.9
20260903073204 90 207 2.0 7.0 0.00 0.00 0.00 61 1005.1
20260903072203 90 263 2.0 8.0 0.00 0.00 0.00 62 1005.5
20260903071204 90 295 3.0 6.0 0.00 0.00 0.00 62 1005.4
20260903070203 90 295 3.0 9.0 0.00 0.00 0.00 62 1005.7
20260903065202 90 299 2.0 10.0 0.00 0.00 0.00 62 1005.9
20260903064204 89 269 2.0 8.0 0.00 0.00 0.00 63 1006.2
20260903063205 89 235 4.0 7.0 0.00 0.00 0.00 63 1006.2
20260903062203 89 269 2.0 6.0 0.00 0.00 0.00 63 1006.5
20260903061203 89 333 4.0 10.0 0.00 0.00 0.00 63 1006.8
20260903060203 89 319 3.0 8.0 0.00 0.00 0.00 63 1007.0
20260903055203 89 326 2.0 8.0 0.00 0.00 0.00 63 1007.2
20260903054202 89 279 4.0 7.0 0.00 0.00 0.00 63 1007.2
20260903053203 89 54 2.0 9.0 0.00 0.00 0.00 63 1007.4
20260903052203 89 255 9.0 10.0 0.00 0.00 0.00 63 1007.6
20260903051202 89 279 2.0 8.0 0.00 0.00 0.00 63 1007.8
20260903050203 88 272 4.0 8.0 0.00 0.00 0.00 64 1007.9
20260903045203 88 284 6.0 9.0 0.00 0.00 0.00 65 1008.1
20260903044203 88 304 0.0 9.0 0.00 0.00 0.00 65 1008.2
20260903043642 88 252 3.0 6.0 0.00 0.00 0.00 65 1008.2
20260903042206 88 268 5.0 9.0 0.00 0.00 0.00 65 1008.2
20260903041204 88 220 1.0 8.0 0.00 0.00 0.00 65 1008.4
20260903040202 88 262 2.0 8.0 0.00 0.00 0.00 65 1008.6
20260903035203 88 301 4.0 8.0 0.00 0.00 0.00 66 1008.6
20260903034203 87 291 3.0 10.0 0.00 0.00 0.00 66 1008.6
20260903033642 87 262 5.0 8.0 0.00 0.00 0.00 67 1008.6
20260903032645 87 242 7.0 9.0 0.00 0.00 0.00 67 1008.7
20260903031202 87 291 2.0 11.0 0.00 0.00 0.00 68 1008.6
20260903030203 86 269 3.0 11.0 0.00 0.00 0.00 68 1008.8
20260903025202 86 237 6.0 6.0 0.00 0.00 0.00 68 1008.8
20260903024203 86 27 2.0 6.0 0.00 0.00 0.00 69 1008.8
20260903023202 86 259 3.0 9.0 0.00 0.00 0.00 69 1008.9
20260903022856 86 257 3.0 5.0 0.00 0.00 0.00 69 1008.9
20260903021334 85 6 2.0 4.0 0.00 0.00 0.00 69 1008.9
20260903020333 85 332 1.0 8.0 0.00 0.00 0.00 69 1008.9
20260903015846 85 322 2.0 7.0 0.00 0.00 0.00 70 1009.0
20260903014848 85 214 3.0 9.0 0.00 0.00 0.00 70 1009.0
20260903014325 85 268 2.0 7.0 0.00 0.00 0.00 70 1009.1
20260903012319 85 2 2.0 8.0 0.00 0.00 0.00 70 1009.0
20260903011322 85 321 3.0 6.0 0.00 0.00 0.00 71 1008.9
20260903010321 85 274 2.0 6.0 0.00 0.00 0.00 71 1008.7
20260903005310 85 228 2.0 5.0 0.00 0.00 0.00 70 1008.8
20260903004308 85 172 0.0 6.0 0.00 0.00 0.00 70 1008.6
20260903003304 85 211 2.0 6.0 0.00 0.00 0.00 70 1008.4
20260903002306 85 238 0.0 6.0 0.00 0.00 0.00 69 1008.3
20260903001301 85 334 1.0 5.0 0.00 0.00 0.00 70 1008.2
20260903000303 85 278 2.0 6.0 0.00 0.00 0.00 70 1007.9
20260902235256 85 209 1.0 6.0 0.00 0.00 0.00 70 1007.8
20260902234253 85 223 3.0 5.0 0.00 0.00 0.00 69 1007.6
20260902233252 85 246 2.0 6.0 0.00 0.00 0.00 69 1007.5
20260902232243 85 257 6.0 6.0 0.00 0.00 0.00 69 1007.4
20260902231237 85 280 1.0 6.0 0.00 0.00 0.00 69 1007.5
20260902230232 85 210 2.0 4.0 0.00 0.00 0.00 69 1007.4
20260902225740 85 252 1.0 4.0 0.00 0.00 0.00 69 1007.4
20260902225511 85 258 2.0 6.0 0.00 0.00 0.00 69 1007.3
20260902223223 85 240 5.0 5.0 0.00 0.00 0.00 68 1007.4
20260902222221 85 235 0.0 6.0 0.00 0.00 0.00 68 1007.3
20260902221216 85 289 2.0 6.0 0.00 0.00 0.00 68 1007.4
20260902220214 85 181 2.0 6.0 0.00 0.00 0.00 68 1007.3
20260902215715 85 59 2.0 4.0 0.00 0.00 0.00 68 1007.3
20260902214211 85 28 0.0 4.0 0.00 0.00 0.00 68 1007.4
20260902213205 85 284 0.0 5.0 0.00 0.00 0.00 68 1007.3
20260902212154 85 225 2.0 6.0 0.00 0.00 0.00 68 1007.3
20260902211152 85 189 2.0 5.0 0.00 0.00 0.00 68 1007.3
20260902210150 85 184 2.0 6.0 0.00 0.00 0.00 68 1007.5
20260902205144 85 298 0.0 5.0 0.00 0.00 0.00 68 1007.4
20260902204144 86 224 2.0 5.0 0.00 0.00 0.00 68 1007.5
20260902203142 86 228 2.0 3.0 0.00 0.00 0.00 68 1007.6
20260902202139 86 180 0.0 5.0 0.00 0.00 0.00 68 1007.6
20260902201137 86 233 1.0 4.0 0.00 0.00 0.00 68 1007.6
20260902200134 86 168 0.0 4.0 0.00 0.00 0.00 68 1007.5
20260902195134 86 250 2.0 4.0 0.00 0.00 0.00 67 1007.6
20260902194621 86 48 1.0 4.0 0.00 0.00 0.00 67 1007.6
20260902193133 86 259 0.0 3.0 0.00 0.00 0.00 67 1007.7
20260902192136 86 5 1.0 4.0 0.00 0.00 0.00 67 1007.8
20260902191134 86 81 0.0 4.0 0.00 0.00 0.00 67 1007.8
20260902190133 86 18 0.0 2.0 0.00 0.00 0.00 67 1008.0
20260902185611 86 106 0.0 2.0 0.00 0.00 0.00 66 1008.1
20260902184131 86 12 1.0 2.0 0.00 0.00 0.00 66 1008.0
20260902183131 86 13 0.0 4.0 0.00 0.00 0.00 66 1008.1
20260902182611 86 218 0.0 4.0 0.00 0.00 0.00 66 1008.2
20260902181131 86 29 2.0 4.0 0.00 0.00 0.00 66 1008.3
20260902180132 86 304 0.0 4.0 0.00 0.00 0.00 66 1008.4
20260902175132 86 180 0.0 3.0 0.00 0.00 0.00 66 1008.5
20260902174131 86 244 3.0 3.0 0.00 0.00 0.00 66 1008.6
20260902173130 87 215 2.0 3.0 0.00 0.00 0.00 65 1008.9
20260902172135 87 271 1.0 5.0 0.00 0.00 0.00 65 1008.9
20260902172055 87 284 1.0 5.0 0.00 0.00 0.00 65 1009.1
20260902170132 87 261 0.0 5.0 0.00 0.00 0.00 65 1009.2
20260902165133 87 282 1.0 6.0 0.00 0.00 0.00 65 1009.2
20260902164608 87 135 0.0 4.0 0.00 0.00 0.00 65 1009.2
20260902163617 87 243 1.0 4.0 0.00 0.00 0.00 65 1009.2
20260902162133 87 222 0.0 4.0 0.00 0.00 0.00 65 1009.1
20260902161131 87 228 2.0 5.0 0.00 0.00 0.00 64 1009.2
20260902160131 87 314 1.0 5.0 0.00 0.00 0.00 64 1009.1
20260902155621 87 353 2.0 5.0 0.00 0.00 0.00 64 1009.2
20260902154133 87 252 2.0 5.0 0.00 0.00 0.00 63 1009.1
20260902153131 87 248 3.0 4.0 0.00 0.00 0.00 63 1009.1
20260902152131 87 262 2.0 4.0 0.00 0.00 0.00 63 1009.1
20260902151131 87 289 0.0 4.0 0.00 0.00 0.00 63 1009.1
20260902151112 87 272 1.0 4.0 0.00 0.00 0.00 64 1009.1
20260902145137 87 214 2.0 6.0 0.00 0.00 0.00 64 1008.8
20260902145131 87 349 1.0 5.0 0.00 0.00 0.00 64 1008.9
20260902143134 87 241 2.0 7.0 0.00 0.00 0.00 64 1008.7
20260902142131 87 239 2.0 5.0 0.00 0.00 0.00 64 1008.5
20260902141645 87 310 2.0 6.0 0.00 0.00 0.00 64 1008.5
20260902140705 87 252 3.0 7.0 0.00 0.00 0.00 65 1008.3
20260902135131 87 241 2.0 4.0 0.00 0.00 0.00 66 1008.1
20260902134132 87 237 2.0 3.0 0.00 0.00 0.00 66 1007.8
20260902133623 87 313 0.0 5.0 0.00 0.00 0.00 67 1007.7
20260902132132 87 278 2.0 4.0 0.00 0.00 0.00 68 1007.5
20260902131624 87 273 0.0 4.0 0.00 0.00 0.00 68 1007.3
20260902130131 87 226 1.0 3.0 0.00 0.00 0.00 68 1007.2
20260902125614 87 219 1.0 4.0 0.00 0.00 0.00 69 1007.0
20260902124132 87 336 0.0 3.0 0.00 0.00 0.00 69 1007.1
20260902123138 87 269 0.0 3.0 0.00 0.00 0.00 69 1006.9
20260902122133 87 335 0.0 2.0 0.00 0.00 0.00 69 1006.7
20260902121626 87 283 0.0 3.0 0.00 0.00 0.00 69 1006.6
20260902120134 87 255 3.0 4.0 0.00 0.00 0.00 69 1006.4
20260902115308 87 154 0.0 2.0 0.00 0.00 0.00 69 1006.2
20260902114300 87 1 1.0 3.0 0.00 0.00 0.00 69 1005.9
20260902113258 87 258 1.0 2.0 0.00 0.00 0.00 69 1005.9
20260902112254 87 333 0.0 1.0 0.00 0.00 0.00 69 1005.8
20260902111250 87 269 0.0 2.0 0.00 0.00 0.00 68 1005.8
20260902110802 88 249 0.0 5.0 0.00 0.00 0.00 68 1005.8
20260902105804 88 228 3.0 4.0 0.00 0.00 0.00 68 1005.7